www.pogodaiklimat.ru

Погода и климат >> Архив погоды >> Индонезия >> Намлеа


ПОГОДА в Намлеа

  • Прогноз погоды в Намлеа
  • Монитор погоды в Намлеа

АРХИВ ПОГОДЫ в Намлеа

Время (UTC), дата Ветер
(напр.,м/с)
 
Видим.   Явления Облачность Т
(С)
Тd
(С)
f
(%)
Тe
(С)
Тes
(С)
Комфортность P
(гПа)
Po
(гПа)
Тmin
(С)
Tmax
(С)
R
(мм)
R24
(мм)
S
(см)
15 11.04 ЮЗ 3 10 км 6/3 540 м
[Cu med, cong Ac trans Ci sp]
+26.6 +25.2 92 +38 +38 очень
душно
1008.9 1007.3
18 11.04 штиль 0 5000 м гроза без осадков 9/5 500 м
[Cb cap Ac As Ci sp]
+26.5 +25.4 94 +39 +39 очень
душно
1007.8 1006.2 0.0
21 11.04 ЮЗ 2 8000 м 9/4 540 м
[Cu Sc Ac As Ci sp]
+25.8 +25.1 96 +37 +37 очень
душно
1008.3 1006.8
00 12.04 ЮЗ 3 10 км 9/3 540 м
[Cu med, cong Ac As Ci sp]
+27.0 +25.2 90 +39 +42 очень
душно
1010.1 1008.6 +2.8 0.0
03 12.04 С 3 10 км 8/3 540 м
[Cu med, cong Ac trans Ci sp]
+30.8 +26.6 78 +47 +55 опасность
перегрева
1009.1 1007.6
06 12.04 СВ 4 10 км 8/3 540 м
[Cu med, cong Ac trans Ci sp]
+30.2 +26.2 79 +46 +50 опасность
перегрева
1007.2 1005.7
09 12.04 ЮЗ 3 10 км 8/3 540 м
[Cu med, cong Ac trans Ci sp]
+27.0 +24.9 88 +39 +39 очень
душно
1008.0 1006.4
12 12.04 ЮЗ 3 10 км 4/3 500 м
[Cu med, cong Ac trans Ci fib]
+25.6 +24.4 93 +36 +36 очень
душно
1010.1 1008.6 +31.0
15 12.04 ЮЗ 3 10 км 3/3 500 м
[Cu med, cong Ci fib]
+25.0 +24.3 96 +35 +35 очень
душно
1009.6 1008.2
18 12.04 ЮЗ 4 10 км 3/3 500 м
[Cu med, cong Ci fib]
+24.6 +23.9 96 +34 +34 очень
душно
1008.5 1007.0
21 12.04 ЮЗ 3 10 км 6/3 500 м
[Cu med, cong Ac trans Ci sp]
+23.8 +23.4 98 +32 +32 очень
душно
1008.9 1007.3
00 13.04 ЮЗ 3 10 км 8/3 500 м
[Cu med, cong Ac trans Ci ing]
+25.5 +23.5 89 +35 +37 очень
душно
1011.2 1009.6 +23.4
03 13.04 штиль 0 10 км 9/3 500 м
[Cu med, cong Ac trans Cs]
+28.3 +25.1 83 +41 +52 опасность
перегрева
1009.6 1008.0
06 13.04 С 5 10 км 6/3 540 м
[Cu med, cong Ac trans Ci sp]
+29.6 +26.3 82 +45 +49 опасность
перегрева
1007.3 1005.8
09 13.04 СЗ 3 5000 м осадки на расстоянии 10/5 450 м
[Cu Sc Ac As Ci sp]
+27.2 +25.1 88 +39 +39 очень
душно
1008.8 1007.2
12 13.04 ЮЗ 4 8000 м {гроза, дождь} 9/4 500 м
[Cu Sc Ac As Ci sp]
+24.9 +24.4 97 +35 +35 очень
душно
1009.5 1008.0 +30.6 0.5
15 13.04 ЮЗ 3 9000 м 5/3 500 м
[Cu med, cong Ac trans Ci fib]
+24.6 +24.2 98 +34 +34 очень
душно
1009.6 1008.1
18 13.04 ЮЗ 4 9000 м 5/3 500 м
[Cu med, cong Ac trans Ci fib]
+24.4 +24.0 98 +34 +34 очень
душно
1008.8 1007.3
21 13.04 ЮЗ 4 9000 м 6/3 500 м
[Cu med, cong Ac trans Ci fib]
+24.1 +23.7 98 +33 +33 очень
душно
1008.7 1007.2
00 14.04 В 3 10 км 5/3 500 м
[Cu med, cong Ac trans Ci sp]
+26.6 +24.7 89 +38 +42 очень
душно
1010.5 1009.0 +23.8 0.5
03 14.04 С 3 9000 м 8/3 540 м
[Cu med, cong Ac As Ci sp]
+30.3 +25.5 76 +45 +52 опасность
перегрева
1009.9 1008.4
06 14.04 С 6 8000 м осадки на расстоянии 8/4 500 м
[Cb cap Ac As Ci sp]
+31.2 +26.1 74 +47 +49 опасность
перегрева
1007.6 1006.1
09 14.04 З 5 1000 м дождь 10/5
[Cu Sc As op]
+24.2 +23.5 96 +33 +33 очень
душно
1009.5 1008.0 50
12 14.04 ЮЗ 3 3000 м слаб. дождь 10/6 500 м
[Cu Sc Ac As]
+24.2 +24.0 99 +33 +33 очень
душно
1010.4 1008.8 +31.6 12
15 14.04 ЮЗ 3 6000 м {дождь} 9/5 540 м
[Cu Sc Ac As Ci sp]
+24.0 +23.5 97 +32 +32 очень
душно
1009.4 1007.9 0.0
18 14.04 ЮЗ 4 8000 м 9/4 540 м
[Cu Sc Ac As Ci sp]
+24.2 +23.5 96 +33 +33 очень
душно
1008.6 1007.0
21 14.04 ЮЗ 3 8000 м 9/4 540 м
[Cu Sc Ac As Ci sp]
+23.9 +23.1 95 +32 +32 очень
душно
1009.0 1007.4
00 15.04 ЮЗ 2 10 км 8/3 540 м
[Cu med, cong Ac trans Ci sp]
+25.8 +24.3 91 +36 +39 очень
душно
1010.2 1008.6 +23.0 62
03 15.04 СВ 3 10 км 8/3 500 м
[Cu med, cong Ac trans Ci sp]
+30.2 +25.1 74 +44 +51 опасность
перегрева
1009.6 1008.7
06 15.04 С 4 7000 м гроза без осадков 9/5 500 м
[Cb cap Ac As Ci sp]
+28.8 +25.0 80 +42 +44 опасность
перегрева
1007.8 1006.2
09 15.04 штиль 0 8000 м в посл. час дождь 9/5 540 м
[Cu Sc Ac As Ci sp]
+26.8 +25.6 93 +39 +39 очень
душно
1008.2 1006.6 0.0
12 15.04 ЮЗ 3 9000 м 8/3 540 м
[Cu med, cong Ac trans Ci sp]
+25.6 +24.9 96 +36 +36 очень
душно
1010.1 1008.6 +30.6 0.0
15 15.04 ЮЗ 3 9000 м 8/3 540 м
[Cu med, cong Ac trans Ci sp]
+25.0 +24.3 96 +35 +35 очень
душно
1010.6 1009.1
18 15.04 ЮЗ 3 9000 м 6/3 540 м
[Cu med, cong Ac trans Ci sp]
+24.6 +23.9 96 +34 +34 очень
душно
1009.0 1007.4
21 15.04 ЮЗ 3 9000 м 8/3 540 м
[Cu med, cong Ac trans Ci sp]
+24.4 +24.0 98 +34 +34 очень
душно
1009.6 1008.0
00 16.04 ЮЗ 3 10 км 8/3 540 м
[Cu med, cong Ac As Ci sp]
+25.5 +24.4 94 +36 +39 очень
душно
1011.1 1009.6 +24.0 0.0
03 16.04 В 3 10 км 6/3 540 м
[Cu med, cong Ac trans Ci sp]
+29.8 +26.4 82 +46 +56 опасность
перегрева
1010.6 1009.0
06 16.04 ЮВ 2 9000 м {гроза} 8/3 540 м
[Cu med, cong Ac As Ci sp]
+29.0 +25.7 82 +43 +49 опасность
перегрева
1007.9 1006.4
09 16.04 штиль 0 10 км 9/3 540 м
[Cu med, cong Ac As Ci sp]
+28.0 +25.7 87 +41 +42 опасность
перегрева
1008.0 1006.4
12 16.04 Ю 2 9000 м 8/3 500 м
[Cu med, cong Ac trans Ci sp]
+26.3 +25.2 94 +38 +38 очень
душно
1010.2 1008.7 +30.6
15 16.04 ЮЗ 4 9000 м 8/3 500 м
[Cu med, cong Ac trans Ci sp]
+25.3 +24.6 96 +36 +36 очень
душно
1011.0 1009.4
18 16.04 ЮЗ 3 9000 м 6/3 500 м
[Cu med, cong Ac trans Ci fib]
+24.7 +23.9 95 +34 +34 очень
душно
1008.8 1007.2
21 16.04 ЮЗ 2 9000 м 4/1 500 м
[Cu med, cong Ac trans Ci fib]
+24.1 +23.6 97 +33 +33 очень
душно
1008.8 1007.2
00 17.04 ЮЗ 4 10 км 4/1 500 м
[Cu med, cong Ac trans Ci fib]
+27.2 +24.5 85 +38 +42 очень
душно
1010.4 1008.9 +23.7
03 17.04 Ю 2 12 км 3/3 540 м
[Cu med, cong]
+31.0 +25.5 73 +46 +60 опасность
перегрева
1009.8 1008.7
06 17.04 В 6 12 км 4/3 540 м
[Cu med, cong Ac trans Ci fib]
+31.4 +26.6 76 +48 +52 опасность
перегрева
1007.1 1005.6
09 17.04 Ю 4 8000 м осадки на расстоянии 9/5 540 м
[Cu Sc Ac As Ci sp]
+29.0 +25.1 80 +42 +42 опасность
перегрева
1007.9 1006.4
12 17.04 штиль 0 10 км 8/3 540 м
[Cu med, cong Ac trans Ci sp]
+27.1 +25.6 92 +40 +40 очень
душно
1009.9 1008.3 +32.0
15 17.04 ЮЗ 2 10 км 9/3 540 м
[Cu med, cong Ac As Ci sp]
+26.6 +25.1 91 +38 +38 очень
душно
1010.4 1008.9
18 17.04 ЮЗ 3 10 км 8/3 540 м
[Cu med, cong Ac trans Ci sp]
+25.6 +24.6 94 +36 +36 очень
душно
1008.8 1007.2
21 17.04 ЮЗ 3 10 км 8/3 540 м
[Cu med, cong Ac As Ci sp]
+25.0 +24.3 96 +35 +35 очень
душно
1009.1 1007.5
00 18.04 ЮЗ 3 10 км 6/3 540 м
[Cu med, cong Ac trans Ci sp]
+27.2 +24.8 87 +39 +43 очень
душно
1011.1 1009.6 +24.0
03 18.04 ЮВ 4 10 км 5/3 540 м
[Cu med, cong Ac trans Ci sp]
+31.6 +26.8 76 +49 +57 опасность
перегрева
1010.3 1008.8
06 18.04 В 4 10 км 4/3 540 м
[Cu med, cong Ac trans Ci fib]
+32.0 +27.3 76 +50 +56 опасность
перегрева
1007.1 1005.5
09 18.04 В 4 10 км 6/3 540 м
[Cu med, cong Ac trans Ci sp]
+28.0 +25.9 88 +42 +42 опасность
перегрева
1007.6 1006.1

 

Местоположение метеостанции Намлеа (Индонезия): широта -3.25 долгота 127.08 высота над уровнем моря 20 м.

В архиве по умолчанию представлена погода в Намлеа за последнюю неделю. Архивные данные за месяц целиком и за предыдущие месяцы, начиная с января 2011 года, Вы можете получить, выбрав интересующий диапазон дат из раскрывающегося списка и нажав кнопку "Ввод!".


*Определитесь, кто Вы:
робот инопланетянин человек

Внимание! Время в таблицах - всемирное. Для получения местного времени необходимо прибавить поправку, которая равна 9 ч.

Смотрите также архив погоды в соседних городах и на ближайших метеорологических станциях:

Погода в Амбоне (Индонезия) (122 км)
Погода на Санане (Индонезия) (177 км)
Погода в Тауне (Индонезия) (182 км)
Погода в Амахаи (Индонезия) (200 км)
Погода в Лабухе (Индонезия) (295 км)
Погода в Неира (Индонезия) (344 км)
Погода в Гесере (Индонезия) (421 км)
Погода в Тернате (Индонезия) (448 км)
Погода в Аэропорту Соронг-Джефман (Индонезия) (517 км)
Погода в Кендари (Индонезия) (525 км)

Пояснения к столбцам:

Ветер - указаны скорость ветра в м/с - средняя за 10 мин, порывы в срок и между сроками (в фигурных скобках) и направление, откуда дует ветер: С - северный, СВ - северо-восточный, В - восточный, ЮВ - юго-восточный, Ю - южный, ЮЗ - юго-западный, З - западный, СЗ - северо-западный.
Видимость - горизонтальная дальность видимости в метрах или километрах. При видимости от 1 до 10 км при отсутствии осадков обычно наблюдается дымка, при ухудшении видимости до 1 км и менее - туман. В сухую погоду видимость может ухудшаться дымом, пылью или мглою.
Явления - указаны атмосферные явления, наблюдавшиеся в срок или в последний час перед сроком; фигурными скобками обозначены явления, наблюдавшиеся между сроками (за 1-3 часа до срока); квадратными скобками обозначены град или гололедные отложения с указанием их диаметра в мм.
Облачность - указаны через наклонную черту общая и нижняя облачность в баллах и высота нижней границы облаков в метрах; квадратными скобками обозначены формы облаков: Ci - перистые, Cs - перисто-слоистые, Cc - перисто-кучевые, Ac - высококучевые, As - высокослоистые, Sc - слоисто-кучевые, Ns - слоисто-дождевые, Cu - кучевые, Cb - кучево-дождевые. Подробнее классификацию облаков см. в Атласе облаков (PDF).
T - Температура воздуха - температура, измеренная на высоте 2 м над землей.
Td - Температура точки росы - температура, при понижении до которой содержащийся в воздухе водяной пар достигнет насыщения.
f - Относительная влажность воздуха - влажноcть воздуха, измеренная на высоте 2 м над землей.
Te - Эффективная температура - температура, которую ощущает одетый по сезону человек в тени. Характеристика душности погоды. При расчете учитывается влияние влажности воздуха и скорости ветра на теплоощущения человека.
Tes - Эффективная температура на солнце - температура, которую ощущает человек, с поправкой на солнечный нагрев. Характеристика знойности погоды. Зависит от высоты солнца над горизонтом, облачности и скорости ветра. Ночью, в пасмурную погоду, а также при ветре 12 м/с и более поправка равна нулю.
P - Атмосферное давление - приведенное к уровню моря атмосферное давление.
Po - Атмосферное давление - измеренное на уровне метеостанции атмосферное давление.
Tmin - Минимальная температура - минимум температуры воздуха на высоте 2 м над землей.
Tmax - Максимальная температура - максимум температуры воздуха на высоте 2 м над землей.
R - Количество осадков - Количество выпавших осадков за период времени, мм. При наведении курсора мыши на число - период времени, за который выпало указанное количество осадков.
R24 - Количество осадков - Количество выпавших осадков за 24 часа, мм.
S - Снежный покров - Высота снежного покрова, см. При наведении курсора мыши на число - состояние снежного покрова и степень покрытия местности в баллах.